Showing default

SIGI, 62632

Orbit data source: Space-Track

SIGI, 62632 is a German payload satellite in SSO that was launched on Tue, 14 Jan 2025 UTC via an FALCON 9 launch vehicle from the Air Force Western Test Range (AFWTR). Payload-class satellites include a variety of spacecraft equipped with specific instruments for various scientific and technological missions. These include communications satellites like Starlink; space stations such as the ISS; scientific satellites like the Hubble; Earth observation satellites from companies like Planet Labs, Umbra, and HawkEye 360; GPS; miniature CubeSats for education and research; and military/defense satellites.

Loading next visibility...
Identifier
62632, 2025-009Z
Orbit
SSO
Country
Flag of DEDE / GER
Related business
Manufacturer
REFLEX
Mission
Operational Commercial Communications
Bus & Motor
OMNIFLEX, Unknown motor
Mass
109 kg wet, 109 kg dry
Launch date (UTC)
2025-01-14 (11 months ago)
Launch vehicle
FALCON 9
Launch site
Air Force Western Test Range (AFWTR)
Object type
Payload
Rocket body
Debris
Shape & HBR
Box + 2 Pan, 1.0 m
Radar Cross Section
1.176 m², Medium (>0.1 m² and < 1m²)

Expand to show TLE details & history
Last TLE update: 15 hours ago

TLE from 15 hours ago
0 SIGI
1 62632U 25009Z   25350.27601402  .00004512  00000-0  19911-3 0  9998
2 62632  97.4184  67.8312 0002382 211.9998 148.1094 15.22265098 50951
Epoch: 2025-12-16T06:37Z
TLE epoch observation values (Epoch: 2025-12-16T06:37:27.611Z)
Latitude
-0.00002°
Longitude
-116.6964°
Altitude
503.494 km
Speed
7.612 km/s
True Right ascension
04h 31m 19s
True Declination
0° 00' 00"
Sunlit
Object was in full shadow at epoch
Visualization orbit readout
Latitude
Unknown
Longitude
Unknown
Altitude
Unknown
Speed
Unknown
Apparent Right ascension
Unknown
Apparent Declination
Unknown
Sunlit
N/A
Visualization observer readout
Local Sidereal Time
19:58:55
Azimuth
Unknown
Elevation
Unknown
Doppler factor
Unknown
Orbital elements
Apogee altitude
497.611 km
Perigee altitude
494.336 km
Semi-major axis
6,874.11 km
Eccentricity
0.00024
Inclination
97.4184°
RAAN
67.8312°
Arg. of periapsis
211.9998°
True anomaly
148.12382°
Mean anomaly
148.1094°
Eccentric anomaly
148.11661°
Mean motion
3.80819 °/min
Orbital period
94.53 mins
BSTAR
0.00019911
Loading maneuver chart data...
Computing Atmospheric mass density...
Loading historical data...
Loading historical data...
Loading historical data...
Loading historical data...
Loading historical data...
Loading historical data...
Loading historical data...

Documentation

Showing up to 5 results
|